Weather History for 41217 - August, 2013

Change the Weather History Date:

Friday, August 23, 2013

  Actual Average Record
Temperature  
Mean Temperature 102 °F -  
Max Temperature 114 °F 103 °F - ()
Min Temperature 89 °F 80 °F - ()
Cooling Degree Days 36    
Growing Degree Days 52 (Base 50)    
Moisture  
Dew Point 62 °F    
Average Humidity 32    
Maximum Humidity 59    
Minimum Humidity 6    
Precipitation  
Precipitation 0.00 in 0.00 in - ()
Sea Level Pressure  
Sea Level Pressure 29.52 in    
Wind  
Wind Speed 7 mph ()    
Max Wind Speed 18 mph    
Max Gust Speed -    
Visibility 4.8 miles    
Events      
T = Trace of Precipitation, MM = Missing Value Source: Averaged Metar Reports

Daily Weather History Graph

Daily Weather History Graph

Search for Another Location

Airport or City:

Trip Planner

Search our weather history database for the weather conditions in past years. The results will help you decide how hot, cold, wet, or windy it might be!

Date:

Astronomy

Aug. 23, 2013 Rise Set
Actual Time 5:59 AM GST 6:48 PM GST
Civil Twilight 5:35 AM GST 7:11 PM GST
Nautical Twilight 5:08 AM GST 7:39 PM GST
Astronomical Twilight 4:40 AM GST 8:07 PM GST
Moon 8:18 PM GST (8/23) 8:05 AM GST (8/23)
Length of Visible Light 13h 35m
Length of Day
12h 49m
Waning Gibbous, 93% of the Moon is Illuminated
Aug 23
Waning Gibbous
Aug 28
Last Quarter
Sep 5
New
Sep 12
First Quarter
Sep 19
Full

Hourly Weather History & Observations

Time (GST) Temp. Heat Index Dew Point Humidity Pressure Visibility Wind Dir Wind Speed Gust Speed Precip Events Conditions
12:00 AM 93.2 °F 100.5 °F 71.6 °F 49% 29.53 in 3.7 mi East 6.9 mph - N/A   Unknown
1:00 AM 95 °F - 67 °F 30% 29.52 in 4 mi SE 2.3 mph - -   Widespread Dust
1:00 AM 95.0 °F 98.5 °F 66.2 °F 39% 29.50 in 4.3 mi SE 2.3 mph - N/A   Unknown
2:00 AM 95.0 °F 98.5 °F 66.2 °F 39% 29.50 in 4.3 mi North 4.6 mph - N/A   Unknown
3:00 AM 96.8 °F 95.1 °F 55.4 °F 25% 29.50 in 4.3 mi SSE 5.8 mph - N/A   Unknown
4:00 AM 96.8 °F 95.1 °F 55.4 °F 25% 29.50 in 5.6 mi SSE 5.8 mph - N/A   Unknown
5:00 AM 95.0 °F 93.0 °F 55.4 °F 26% 29.53 in 5.6 mi South 5.8 mph - N/A   Unknown
6:00 AM 89.6 °F 87.7 °F 55.4 °F 31% 29.53 in 5.6 mi SE 5.8 mph - N/A   Unknown
7:00 AM 91.4 °F 89.9 °F 57.2 °F 31% 29.56 in 5.0 mi East 5.8 mph - N/A   Unknown
8:00 AM 93.2 °F 91.9 °F 57.2 °F 30% 29.56 in - SE 9.2 mph - N/A   Clear
9:00 AM 98.6 °F 98.5 °F 59.0 °F 27% 29.56 in - South 11.5 mph - N/A   Clear
10:00 AM 103 °F - 56 °F 13% 29.58 in 6 mi South 10.4 mph - -  
10:00 AM 104.0 °F 102.9 °F 55.4 °F 20% 29.56 in - South 10.4 mph - N/A   Clear
11:00 AM 107.6 °F - 50.0 °F 15% 29.56 in - SSW 13.8 mph - N/A   Clear
12:00 PM 111.2 °F - 48.2 °F 12% 29.56 in - WSW 12.7 mph - N/A   Clear
1:00 PM 112 °F - 47 °F 6%  in 6 mi WSW 12.7 mph - -  
1:00 PM 113.0 °F - 46.4 °F 11% 29.53 in - WSW 12.7 mph - N/A   Clear
2:00 PM 114.8 °F - 46.4 °F 10% 29.50 in - West 15.0 mph - N/A   Clear
3:00 PM 104.0 °F 108.9 °F 66.2 °F 29% 29.50 in - NW 17.3 mph - N/A   Clear
4:00 PM 102.2 °F 119.3 °F 77.0 °F 45% 29.47 in 5.0 mi NNW 18.4 mph - N/A   Unknown
5:00 PM 98.6 °F 114.4 °F 77.0 °F 50% 29.47 in 5.0 mi NNW 18.4 mph - N/A   Unknown
6:00 PM 96.8 °F 109.6 °F 75.2 °F 50% 29.47 in 4.3 mi North 15.0 mph - N/A   Unknown
7:00 PM 97 °F - 69 °F 31% 29.50 in 4 mi North 11.5 mph - -   Widespread Dust
7:00 PM 96.8 °F 103.1 °F 69.8 °F 41% 29.50 in 4.3 mi North 11.5 mph - N/A   Unknown
8:00 PM 95.0 °F 99.5 °F 68.0 °F 41% 29.50 in - North 5.8 mph - N/A   Clear
9:00 PM 93.2 °F 100.5 °F 71.6 °F 49% 29.53 in - North 4.6 mph - N/A   Clear
10:00 PM 91.4 °F 102.5 °F 75.2 °F 59% 29.53 in - North 3.5 mph - N/A   Clear
11:00 PM 91.4 °F 102.5 °F 75.2 °F 59% 29.53 in - North 3.5 mph - N/A   Clear